When you browse on this site, cookies collect data to enhance your experience and personalize the content and advertising you see.
Visit our Privacy Policy to learn more. By continuing to use the site, you agree to this use of cookies and data.

Meteo pe oră la Mazyr

Astăzi, 3 August, Luni

Timp Temperatura Precipitaţii Vânt Presiune Umiditate
00:00 +14°C° 0 mm 1 m/s 747 mmHg 85%
01:00 +14°C° 0 mm 1 m/s 747 mmHg 87%
02:00 +13°C° 0 mm 1 m/s 747 mmHg 87%
03:00 +13°C° 0 mm 1 m/s 747 mmHg 88%
04:00 +13°C° 0 mm 1 m/s 747 mmHg 89%
05:00 +13°C° 0 mm 1 m/s 747 mmHg 90%
06:00 +15°C° 0 mm 1 m/s 747 mmHg 83%
07:00 +18°C° 0 mm 1 m/s 747 mmHg 76%
08:00 +19°C° 0 mm 2 m/s 748 mmHg 69%
09:00 +21°C° 0 mm 2 m/s 748 mmHg 64%
10:00 +23°C° 0 mm 2 m/s 748 mmHg 59%
11:00 +24°C° 0 mm 3 m/s 748 mmHg 54%
12:00 +25°C° 0 mm 3 m/s 747 mmHg 53%
13:00 +25°C° 0 mm 3 m/s 747 mmHg 53%
14:00 +25°C° 0 mm 3 m/s 747 mmHg 52%
15:00 +25°C° 0 mm 3 m/s 747 mmHg 54%
16:00 +25°C° 0 mm 3 m/s 747 mmHg 56%
17:00 +25°C° 0 mm 3 m/s 746 mmHg 58%
18:00 +22°C° 0 mm 3 m/s 746 mmHg 64%
19:00 +20°C° 0 mm 3 m/s 746 mmHg 70%
20:00 +18°C° 0 mm 2 m/s 746 mmHg 76%
21:00 +18°C° 0 mm 2 m/s 746 mmHg 79%
22:00 +17°C° 0 mm 2 m/s 746 mmHg 81%
23:00 +16°C° 0 mm 3 m/s 746 mmHg 83%

Mâine, 4 August, Marţi

Timp Temperatura Precipitaţii Vânt Presiune Umiditate
00:00 +16°C° 0 mm 3 m/s 746 mmHg 84%
01:00 +14°C° 0 mm 3 m/s 746 mmHg 84%
02:00 +14°C° 0 mm 3 m/s 746 mmHg 85%
03:00 +14°C° 0 mm 3 m/s 746 mmHg 84%
04:00 +14°C° 0 mm 3 m/s 746 mmHg 83%
05:00 +14°C° 0 mm 4 m/s 746 mmHg 81%
06:00 +17°C° 0 mm 4 m/s 746 mmHg 77%
07:00 +18°C° 0 mm 4 m/s 746 mmHg 72%
08:00 +20°C° 0 mm 5 m/s 746 mmHg 67%
09:00 +22°C° 0 mm 5 m/s 746 mmHg 61%
10:00 +25°C° 0 mm 5 m/s 746 mmHg 55%
11:00 +26°C° 0 mm 6 m/s 746 mmHg 49%
12:00 +27°C° 0 mm 6 m/s 746 mmHg 48%
13:00 +28°C° 0 mm 6 m/s 746 mmHg 46%
14:00 +28°C° 0 mm 6 m/s 746 mmHg 45%
15:00 +28°C° 0 mm 5 m/s 746 mmHg 48%
16:00 +27°C° 0 mm 5 m/s 746 mmHg 51%
17:00 +27°C° 0 mm 4 m/s 746 mmHg 54%
18:00 +25°C° 0 mm 4 m/s 746 mmHg 60%
19:00 +22°C° 0 mm 3 m/s 746 mmHg 65%
20:00 +20°C° 0 mm 3 m/s 746 mmHg 71%
21:00 +20°C° 0 mm 3 m/s 746 mmHg 72%
22:00 +19°C° 0 mm 3 m/s 746 mmHg 74%
23:00 +18°C° 0 mm 3 m/s 746 mmHg 75%

Poimâine, 5 August, Miercuri

Timp Temperatura Precipitaţii Vânt Presiune Umiditate
00:00 +18°C° 0 mm 3 m/s 746 mmHg 76%
01:00 +18°C° 0 mm 3 m/s 747 mmHg 77%
02:00 +17°C° 0 mm 3 m/s 747 mmHg 78%
03:00 +17°C° 0 mm 3 m/s 747 mmHg 79%
04:00 +17°C° 0 mm 3 m/s 747 mmHg 80%
05:00 +16°C° 0 mm 3 m/s 747 mmHg 80%
06:00 +18°C° 0 mm 3 m/s 747 mmHg 75%
07:00 +20°C° 0 mm 3 m/s 748 mmHg 69%
08:00 +22°C° 0 mm 3 m/s 748 mmHg 64%
09:00 +25°C° 0 mm 3 m/s 748 mmHg 58%
10:00 +27°C° 0 mm 3 m/s 748 mmHg 52%
11:00 +29°C° 0 mm 3 m/s 749 mmHg 46%
12:00 +29°C° 0 mm 3 m/s 749 mmHg 43%
13:00 +30°C° 0 mm 2 m/s 749 mmHg 40%
14:00 +31°C° 0 mm 2 m/s 749 mmHg 38%
15:00 +30°C° 0 mm 2 m/s 749 mmHg 40%
16:00 +30°C° 0 mm 2 m/s 749 mmHg 43%
17:00 +30°C° 0 mm 2 m/s 749 mmHg 46%
18:00 +28°C° 0 mm 2 m/s 749 mmHg 51%
19:00 +26°C° 0 mm 2 m/s 749 mmHg 57%
20:00 +23°C° 0 mm 2 m/s 750 mmHg 63%
21:00 +23°C° 0 mm 2 m/s 750 mmHg 66%
22:00 +21°C° 0 mm 2 m/s 750 mmHg 69%
23:00 +20°C° 0 mm 2 m/s 750 mmHg 72%

6 August, Joi

Timp Temperatura Precipitaţii Vânt Presiune Umiditate
00:00 +19°C° 0 mm 2 m/s 750 mmHg 74%
01:00 +19°C° 0 mm 2 m/s 750 mmHg 75%
02:00 +18°C° 0 mm 2 m/s 751 mmHg 77%
03:00 +19°C° 0 mm 1 m/s 751 mmHg 78%
04:00 +19°C° 0 mm 1 m/s 751 mmHg 80%
05:00 +18°C° 0 mm 1 m/s 751 mmHg 81%
06:00 +20°C° 0 mm 1 m/s 751 mmHg 75%
07:00 +22°C° 0 mm 1 m/s 752 mmHg 70%
08:00 +22°C° 0 mm 0 m/s 752 mmHg 64%
09:00 +24°C° 0 mm 0 m/s 752 mmHg 59%
10:00 +26°C° 0 mm 0 m/s 752 mmHg 55%
11:00 +27°C° 0 mm 0 m/s 752 mmHg 50%
12:00 +30°C° 0 mm 1 m/s 752 mmHg 48%
13:00 +30°C° 0 mm 1 m/s 752 mmHg 46%
14:00 +31°C° 0 mm 1 m/s 752 mmHg 44%
15:00 +30°C° 0 mm 1 m/s 752 mmHg 46%
16:00 +30°C° 0 mm 1 m/s 752 mmHg 48%
17:00 +30°C° 0 mm 2 m/s 752 mmHg 51%
18:00 +27°C° 0 mm 2 m/s 752 mmHg 59%
19:00 +25°C° 0 mm 2 m/s 752 mmHg 67%
20:00 +23°C° 0 mm 2 m/s 752 mmHg 75%
21:00 +21°C° 0 mm 2 m/s 752 mmHg 80%
22:00 +21°C° 0 mm 2 m/s 752 mmHg 84%
23:00 +20°C° 0 mm 2 m/s 753 mmHg 89%

7 August, Vineri

Timp Temperatura Precipitaţii Vânt Presiune Umiditate
00:00 +20°C° 0 mm 2 m/s 753 mmHg 91%
01:00 +19°C° 0 mm 3 m/s 753 mmHg 93%
02:00 +19°C° 0 mm 3 m/s 753 mmHg 95%
03:00 +18°C° 0 mm 3 m/s 753 mmHg 95%
04:00 +18°C° 0 mm 3 m/s 753 mmHg 95%
05:00 +18°C° 0 mm 3 m/s 753 mmHg 95%
06:00 +19°C° 0 mm 3 m/s 753 mmHg 89%
07:00 +20°C° 0 mm 4 m/s 753 mmHg 82%
08:00 +21°C° 0 mm 4 m/s 754 mmHg 76%
09:00 +23°C° 0 mm 4 m/s 754 mmHg 69%
10:00 +25°C° 0 mm 5 m/s 754 mmHg 63%
11:00 +26°C° 0 mm 5 m/s 754 mmHg 56%
12:00 +27°C° 0 mm 5 m/s 753 mmHg 53%
13:00 +27°C° 0 mm 5 m/s 753 mmHg 51%
14:00 +27°C° 0 mm 5 m/s 753 mmHg 49%
15:00 +27°C° 0 mm 5 m/s 753 mmHg 51%
16:00 +26°C° 0 mm 5 m/s 753 mmHg 53%
17:00 +26°C° 0 mm 5 m/s 752 mmHg 56%
18:00 +23°C° 0 mm 4 m/s 752 mmHg 62%
19:00 +21°C° 0 mm 4 m/s 753 mmHg 69%
20:00 +20°C° 0 mm 3 m/s 753 mmHg 75%
21:00 +19°C° 0 mm 3 m/s 753 mmHg 79%
22:00 +18°C° 0 mm 3 m/s 752 mmHg 82%
23:00 +17°C° 0 mm 3 m/s 752 mmHg 86%

8 August, Sâmbătă

Timp Temperatura Precipitaţii Vânt Presiune Umiditate
00:00 +17°C° 0 mm 3 m/s 752 mmHg 87%
01:00 +16°C° 0 mm 3 m/s 752 mmHg 88%
02:00 +16°C° 0 mm 3 m/s 752 mmHg 90%
03:00 +16°C° 0 mm 3 m/s 752 mmHg 91%
04:00 +14°C° 0 mm 3 m/s 752 mmHg 92%
05:00 +14°C° 0 mm 3 m/s 752 mmHg 93%
06:00 +17°C° 0 mm 3 m/s 752 mmHg 87%
07:00 +18°C° 0 mm 3 m/s 752 mmHg 80%
08:00 +20°C° 0 mm 3 m/s 752 mmHg 74%
09:00 +21°C° 0 mm 3 m/s 752 mmHg 68%
10:00 +23°C° 0 mm 4 m/s 752 mmHg 62%
11:00 +25°C° 0 mm 4 m/s 752 mmHg 56%
12:00 +25°C° 0.1 mm 4 m/s 751 mmHg 56%
13:00 +25°C° 0.1 mm 4 m/s 751 mmHg 57%
14:00 +25°C° 0.1 mm 4 m/s 750 mmHg 57%
15:00 +25°C° 0 mm 4 m/s 750 mmHg 57%
16:00 +25°C° 0 mm 4 m/s 750 mmHg 57%
17:00 +25°C° 0 mm 4 m/s 750 mmHg 57%
18:00 +24°C° 0 mm 3 m/s 750 mmHg 65%
19:00 +21°C° 0 mm 3 m/s 750 mmHg 72%
20:00 +19°C° 0 mm 3 m/s 750 mmHg 79%
21:00 +19°C° 0 mm 3 m/s 750 mmHg 81%
22:00 +18°C° 0 mm 2 m/s 750 mmHg 82%
23:00 +18°C° 0 mm 2 m/s 750 mmHg 84%
Arată mai mult